Total_Precipitation_Accumulation
0.01 0.00 0.01 0.21 0.89 0.28 0.24 0.28 0.37 0.23 0.18 0.13 0.07 0.04 0.07 0.08 0.12 0.17 0.00 0.00 0.00 0.00 0.06 0.05 0.22 0.08 0.07 0.07 0.04 0.03 0.02 0.02 0.02 0.05 0.09 0.09 0.06 0.08 0.09 0.03 0.06 0.08 0.07 0.05 0.02 0.04 0.07 0.05 0.04
0.00 0.05 0.19 1.00 1.06 0.69 0.73 0.51 0.50 0.18 0.19 0.19 0.08 0.03 0.02 0.01 0.02 0.01 0.00 0.00 0.00 0.00 0.03 0.01 0.10 0.08 0.07 0.07 0.04 0.05 0.02 0.06 0.12 0.14 0.10 0.07 0.16 0.12 0.17 0.09 0.09 0.12 0.11 0.14 0.19 0.14 0.09 0.08 0.13
0.00 0.32 1.05 1.53 0.76 0.71 0.70 0.68 0.39 0.24 0.24 0.12 0.10 0.06 0.04 0.02 0.00 0.00 0.00 0.00 0.00 0.00 0.02 0.01 0.04 0.05 0.06 0.06 0.05 0.05 0.02 0.04 0.09 0.13 0.12 0.09 0.14 0.12 0.11 0.09 0.04 0.04 0.04 0.03 0.02 0.01 0.02 0.10 0.23
0.01 0.43 0.96 0.86 0.65 0.30 0.15 0.37 0.43 0.34 0.44 0.41 0.20 0.07 0.04 0.02 0.00 0.00 0.00 0.00 0.00 0.01 0.00 0.01 0.02 0.03 0.06 0.09 0.05 0.03 0.04 0.06 0.08 0.07 0.05 0.13 0.14 0.19 0.04 0.02 0.04 0.01 0.02 0.01 0.01 0.01 0.03 0.01 0.11
0.06 0.86 0.74 0.71 0.88 0.64 0.13 0.34 0.38 0.78 0.64 0.48 0.22 0.08 0.08 0.03 0.01 0.00 0.00 0.00 0.00 0.00 0.00 0.01 0.09 0.06 0.05 0.05 0.02 0.03 0.06 0.09 0.07 0.06 0.09 0.14 0.08 0.08 0.03 0.03 0.02 0.00 0.01 0.02 0.05 0.04 0.04 0.08 0.20
0.39 0.36 0.36 0.52 0.30 0.30 0.27 0.26 0.43 0.90 1.05 0.39 0.18 0.11 0.10 0.04 0.01 0.00 0.00 0.00 0.00 0.00 0.00 0.02 0.05 0.05 0.08 0.03 0.05 0.03 0.04 0.05 0.10 0.12 0.10 0.08 0.05 0.05 0.02 0.01 0.00 0.00 0.00 0.00 0.02 0.13 0.08 0.04 0.19
0.25 0.33 0.38 0.28 0.35 0.34 0.47 0.35 0.57 1.11 0.58 0.23 0.27 0.07 0.06 0.05 0.01 0.00 0.00 0.00 0.00 0.00 0.00 0.02 0.01 0.06 0.08 0.08 0.08 0.04 0.06 0.06 0.09 0.07 0.09 0.05 0.02 0.00 0.00 0.01 0.00 0.00 0.00 0.00 0.02 0.04 0.04 0.07 0.10
0.13 0.29 1.35 0.43 0.18 1.31 0.68 0.48 0.57 0.62 0.37 0.14 0.06 0.03 0.03 0.02 0.01 0.00 0.00 0.00 0.00 0.00 0.01 0.00 0.01 0.02 0.03 0.06 0.13 0.04 0.05 0.06 0.09 0.03 0.03 0.03 0.01 0.04 0.03 0.04 0.02 0.00 0.00 0.00 0.02 0.03 0.03 0.06 0.13
0.20 1.11 1.57 0.42 0.30 1.22 0.59 0.35 0.25 0.37 0.12 0.03 0.02 0.01 0.00 0.00 0.00 0.01 0.01 0.01 0.01 0.01 0.00 0.00 0.02 0.01 0.10 0.03 0.08 0.08 0.07 0.07 0.02 0.02 0.06 0.15 0.06 0.04 0.06 0.08 0.03 0.01 0.02 0.05 0.05 0.01 0.04 0.04 0.04
0.21 0.51 0.34 0.06 0.05 0.23 0.44 0.47 0.44 0.24 0.04 0.03 0.01 0.00 0.00 0.01 0.01 0.01 0.01 0.01 0.01 0.00 0.01 0.00 0.00 0.00 0.07 0.02 0.06 0.09 0.02 0.00 0.00 0.01 0.03 0.14 0.06 0.02 0.04 0.06 0.11 0.05 0.05 0.06 0.09 0.07 0.26 0.47 0.15
0.09 0.11 0.01 0.02 0.02 0.06 0.12 0.08 0.22 0.24 0.07 0.01 0.00 0.00 0.00 0.00 0.00 0.00 0.00 0.00 0.00 0.00 0.00 0.00 0.00 0.00 0.01 0.02 0.01 0.01 0.00 0.00 0.00 0.05 0.14 0.20 0.04 0.05 0.07 0.02 0.06 0.04 0.03 0.04 0.27 0.07 0.26 0.82 0.32
0.01 0.01 0.02 0.01 0.03 0.08 0.21 0.23 0.16 0.50 0.72 0.06 0.00 0.00 0.00 0.00 0.00 0.00 0.00 0.00 0.00 0.00 0.00 0.00 0.00 0.01 0.15 0.00 0.00 0.07 0.04 0.00 0.00 0.01 0.05 0.08 0.04 0.06 0.03 0.05 0.04 0.07 0.03 0.04 0.19 0.02 0.04 0.10 0.17
0.00 0.01 0.01 0.01 0.02 0.02 0.01 0.40 0.30 0.12 0.27 0.02 0.00 0.00 0.00 0.00 0.00 0.00 0.00 0.00 0.00 0.00 0.00 0.00 0.00 0.05 0.16 0.01 0.00 0.03 0.00 0.00 0.00 0.00 0.03 0.16 0.08 0.06 0.05 0.08 0.08 0.05 0.04 0.04 0.04 0.03 0.01 0.00 0.00
0.00 0.00 0.00 0.01 0.01 0.03 0.00 0.06 0.01 0.05 0.02 0.00 0.00 0.00 0.00 0.00 0.00 0.00 0.00 0.00 0.00 0.00 0.00 0.00 0.00 0.02 0.04 0.02 0.01 0.00 0.00 0.00 0.00 0.00 0.01 0.12 0.13 0.22 0.27 0.25 0.16 0.11 0.11 0.03 0.03 0.01 0.00 0.00 0.00
0.00 0.00 0.00 0.00 0.01 0.06 0.02 0.03 0.01 0.04 0.03 0.00 0.00 0.00 0.00 0.00 0.00 0.00 0.00 0.00 0.00 0.00 0.00 0.00 0.00 0.00 0.00 0.00 0.00 0.00 0.00 0.00 0.00 0.00 0.00 0.01 0.08 0.17 0.19 0.20 0.21 0.17 0.06 0.01 0.03 0.02 0.00 0.00 0.00
0.00 0.00 0.00 0.00 0.00 0.01 0.01 0.02 0.01 0.26 0.40 0.00 0.00 0.00 0.00 0.00 0.00 0.00 0.00 0.00 0.00 0.00 0.00 0.00 0.00 0.00 0.00 0.00 0.00 0.03 0.00 0.00 0.00 0.00 0.00 0.00 0.07 0.14 0.20 0.18 0.12 0.07 0.07 0.05 0.05 0.02 0.00 0.00 0.00
0.00 0.00 0.00 0.00 0.00 0.00 0.01 0.11 0.23 0.18 0.29 0.01 0.01 0.01 0.00 0.00 0.00 0.00 0.00 0.00 0.00 0.00 0.00 0.00 0.00 0.00 0.00 0.00 0.00 0.01 0.00 0.00 0.00 0.00 0.00 0.00 0.00 0.05 0.35 0.29 0.23 0.10 0.13 0.08 0.03 0.04 0.01 0.00 0.00
0.00 0.00 0.00 0.00 0.00 0.01 0.02 0.06 0.42 0.18 0.10 0.16 0.10 0.05 0.00 0.00 0.00 0.00 0.00 0.00 0.00 0.00 0.00 0.00 0.00 0.00 0.00 0.00 0.00 0.00 0.00 0.00 0.00 0.01 0.00 0.00 0.00 0.05 0.24 0.31 0.33 0.19 0.14 0.24 0.14 0.02 0.00 0.00 0.00
0.00 0.00 0.00 0.00 0.00 0.01 0.01 0.04 0.44 0.27 0.08 0.44 0.22 0.10 0.04 0.00 0.00 0.00 0.00 0.00 0.00 0.00 0.00 0.00 0.00 0.00 0.00 0.00 0.00 0.00 0.00 0.00 0.01 0.00 0.00 0.00 0.00 0.01 0.14 0.18 0.24 0.14 0.10 0.09 0.06 0.00 0.00 0.00 0.00
0.00 0.00 0.00 0.00 0.00 0.00 0.01 0.03 0.09 0.07 0.04 0.21 0.14 0.07 0.03 0.00 0.00 0.00 0.00 0.00 0.00 0.00 0.00 0.00 0.00 0.01 0.00 0.00 0.00 0.00 0.00 0.00 0.00 0.01 0.00 0.00 0.00 0.00 0.02 0.09 0.13 0.16 0.14 0.14 0.09 0.04 0.01 0.00 0.00
0.00 0.00 0.00 0.00 0.00 0.00 0.01 0.03 0.07 0.07 0.14 0.13 0.07 0.05 0.09 0.00 0.00 0.00 0.00 0.00 0.00 0.00 0.00 0.00 0.00 0.00 0.00 0.00 0.00 0.00 0.00 0.00 0.00 0.00 0.00 0.00 0.00 0.00 0.02 0.06 0.13 0.16 0.18 0.11 0.06 0.01 0.00 0.00 0.00
0.00 0.00 0.00 0.00 0.00 0.00 0.00 0.00 0.01 0.03 0.29 0.62 0.07 0.00 0.05 0.01 0.01 0.00 0.00 0.00 0.00 0.00 0.00 0.00 0.00 0.00 0.00 0.00 0.00 0.00 0.00 0.00 0.00 0.00 0.00 0.00 0.00 0.00 0.00 0.07 0.14 0.16 0.19 0.15 0.06 0.01 0.00 0.00 0.00
0.00 0.00 0.00 0.00 0.00 0.00 0.00 0.00 0.00 0.00 0.05 0.46 0.16 0.02 0.09 0.15 0.01 0.01 0.00 0.00 0.00 0.00 0.00 0.00 0.00 0.00 0.00 0.00 0.00 0.00 0.00 0.00 0.00 0.00 0.00 0.01 0.00 0.00 0.00 0.05 0.10 0.09 0.12 0.15 0.11 0.08 0.00 0.01 0.00
0.00 0.00 0.00 0.00 0.00 0.00 0.00 0.00 0.00 0.00 0.00 0.07 0.22 0.10 0.02 0.00 0.00 0.01 0.00 0.00 0.00 0.00 0.00 0.00 0.00 0.00 0.00 0.00 0.00 0.00 0.00 0.00 0.00 0.00 0.00 0.00 0.00 0.00 0.01 0.01 0.02 0.06 0.06 0.10 0.10 0.11 0.03 0.00 0.01
0.00 0.00 0.00 0.00 0.00 0.00 0.00 0.00 0.00 0.00 0.00 0.01 0.07 0.18 0.02 0.00 0.00 0.01 0.00 0.00 0.00 0.00 0.00 0.00 0.00 0.00 0.00 0.00 0.00 0.00 0.00 0.00 0.00 0.00 0.00 0.00 0.00 0.00 0.00 0.01 0.04 0.02 0.03 0.05 0.07 0.11 0.08 0.02 0.00
0.00 0.00 0.00 0.00 0.00 0.00 0.00 0.00 0.00 0.00 0.00 0.01 0.03 0.03 0.06 0.00 0.00 0.00 0.00 0.00 0.00 0.00 0.00 0.00 0.00 0.00 0.00 0.00 0.00 0.00 0.00 0.00 0.00 0.00 0.00 0.00 0.00 0.00 0.00 0.00 0.00 0.01 0.02 0.02 0.04 0.04 0.02 0.02 0.00
0.00 0.00 0.00 0.00 0.00 0.00 0.00 0.00 0.00 0.00 0.00 0.00 0.04 0.07 0.06 0.04 0.00 0.00 0.00 0.00 0.00 0.00 0.00 0.00 0.00 0.00 0.00 0.00 0.00 0.00 0.00 0.00 0.00 0.00 0.00 0.00 0.00 0.00 0.00 0.00 0.00 0.00 0.01 0.01 0.03 0.02 0.03 0.04 0.01
0.00 0.00 0.00 0.00 0.00 0.00 0.00 0.00 0.00 0.00 0.00 0.00 0.00 0.04 0.03 0.14 0.16 0.02 0.00 0.00 0.00 0.00 0.00 0.00 0.00 0.00 0.00 0.00 0.00 0.00 0.00 0.00 0.00 0.00 0.00 0.00 0.00 0.00 0.00 0.00 0.00 0.00 0.00 0.00 0.01 0.00 0.01 0.01 0.01
0.00 0.00 0.00 0.00 0.00 0.00 0.00 0.00 0.00 0.00 0.00 0.00 0.00 0.00 0.00 0.03 0.25 0.25 0.06 0.00 0.00 0.00 0.00 0.00 0.00 0.00 0.00 0.00 0.00 0.00 0.00 0.00 0.00 0.00 0.00 0.00 0.00 0.00 0.00 0.00 0.00 0.00 0.00 0.00 0.00 0.00 0.01 0.01 0.00
0.00 0.00 0.00 0.00 0.00 0.00 0.00 0.00 0.00 0.00 0.00 0.00 0.00 0.00 0.00 0.00 0.07 0.31 0.27 0.01 0.00 0.00 0.00 0.00 0.00 0.00 0.00 0.00 0.00 0.00 0.00 0.00 0.00 0.00 0.00 0.00 0.00 0.00 0.00 0.00 0.00 0.00 0.00 0.00 0.00 0.00 0.00 0.00 0.00